< < Back
Terminal Aerodrome Forecast


Current Version              Previous Versions:   1  2  3  4  5  6  7  8  9  

Terminal Aerodrome Forecast

166
FTUS42 KGSP 011729
TAFAND
TAF
KAND 011729Z 0118/0218 06006KT P6SM BKN070
     FM012200 34005KT P6SM FEW070
     FM020500 08004KT P6SM FEW250
     FM021400 06008KT P6SM SKC=

Latest METAR

813
SAUS70 KWBC 020600 RRG
MTRAND
METAR KAND 020556Z AUTO 00000KT 10SM CLR 23/16 A2996 RMK AO2 SLP133
T02280156 10317 20206 53002


USA.gov is the U.S. government's official web portal to all federal, state and local government web resources and services.